Location: Strawberry
(45.6646°N, 111.9596°W)
Time: 14:05:31
(UTC+00:00)

BUGSAT 1 - Visible Passes

Search period start: 08 December 2022 00:00
Search period end: 18 December 2022 00:00
Orbit: 553 x 595 km, 98.1° (Epoch: 07 December)

Date Brightness Start Highest point End Pass type
(mag) Time Alt. Az. Time Alt. Az. Time Alt. Az.
08 Dec ? 01:20:45 10° S 01:24:46 45° W 01:28:46 10° NNW visible
08 Dec ? 12:59:32 10° NE 13:02:24 19° E 13:05:15 10° SE visible
09 Dec ? 01:24:03 10° S 01:28:01 42° W 01:32:00 10° NNW visible
09 Dec ? 13:02:41 10° NE 13:05:41 20° E 13:08:38 10° SE visible
10 Dec ? 01:27:22 10° SSW 01:31:17 39° W 01:35:11 10° NNW visible
10 Dec ? 13:05:49 10° NE 13:08:56 21° E 13:12:01 10° SE visible
11 Dec ? 01:30:41 10° SSW 01:34:32 36° W 01:38:23 10° NNW visible
11 Dec ? 13:08:58 10° NE 13:12:12 23° E 13:15:22 10° SSE visible
12 Dec ? 01:34:00 10° SSW 01:37:47 34° W 01:41:34 10° NNW visible
12 Dec ? 13:12:07 10° NE 13:15:26 25° E 13:18:43 10° SSE visible
13 Dec ? 01:37:19 10° SSW 01:41:01 31° W 01:44:44 10° NNW visible
13 Dec ? 13:15:16 10° NE 13:18:41 26° E 13:22:03 10° SSE visible
14 Dec ? 01:40:38 10° SSW 01:44:15 29° W 01:47:53 10° NW visible
14 Dec ? 13:18:25 10° NE 13:21:54 28° E 13:25:22 10° SSE visible
15 Dec ? 01:43:57 10° SSW 01:47:29 27° W 01:51:01 10° NW visible
15 Dec ? 13:21:34 10° NE 13:25:08 30° E 13:28:39 10° SSE visible
16 Dec ? 00:11:56 10° SE 00:15:34 30° ENE 00:19:10 10° N visible
16 Dec ? 01:47:16 10° SSW 01:50:44 25° W 01:54:10 10° NW visible
16 Dec ? 13:24:43 10° NNE 13:28:21 33° E 13:31:56 10° SSE visible
17 Dec ? 00:15:03 10° SE 00:18:45 32° ENE 00:22:25 10° N visible
17 Dec ? 01:50:36 10° SSW 01:53:56 23° W 01:57:17 10° NW visible
17 Dec ? 13:27:52 10° NNE 13:31:33 35° E 13:35:12 10° SSE visible
